User: anonymous   Login
Location: Breux
(46.3269°N, 3.2993°E)
Time: 20:30:38
(UTC+00:00)
Language:

STARLINK-1246 - Orbit

View from above orbital plane
View from above orbital plane
View from above satellite
View from above satellite

Ground track
Ground track

The orbit data is extracted from the following two-line orbital elements,

1 45235U 20012BK  20185.66668981 -.00028610  00000-0 -19525-2 0  9993
2 45235  52.9981   1.7574 0001521  97.1955 173.0428 15.05575599 21182
Epoch (UTC): 03 July 2020 16:00:02
Eccentricity: 0.0001521
inclination: 52.9981°
perigee height: 548 km
apogee height: 551 km
right ascension of ascending node: 1.7574°
argument of perigee: 97.1955°
revolutions per day: 15.05575599
mean anomaly at epoch: 173.0428°
orbit number at epoch: 2118

The dashed part of the orbit path shows where the satellite is in the earth's shadow,  

DLR